#timestamp,LO_Frequency,Hit,StdDev 
1547524815.2,286046995.9,N
1547524835.0,286046996.4,N
1547524836.0,286046996.4,N
1547524855.8,286046995.8,N
1547524875.6,286046993.8,Y
1547524895.5,286046999.1,P
1547524915.3,286046999.0,N
1547524935.1,286046998.8,N
1547524955.9,286046999.1,N
1547524975.7,286046997.7,Y
1547524995.6,286046998.8,P
1547525015.4,286046999.9,N
1547525035.2,286047000.9,N
1547525055.1,286047000.8,N
1547525056.0,286047000.8,N
1547525075.8,286047000.9,N
1547525095.6,286047001.1,N
1547525115.5,286046998.7,N
1547525135.1,286046998.8,N
1547525136.0,286046998.8,N
1547525155.8,286046999.2,N
1547525175.7,286046999.6,N
1547525195.5,286046999.6,N
1547525215.3,286047000.8,N
1547525235.2,286047000.4,N
1547525255.0,286047001.0,N
1547525255.9,286047001.0,N
1547525275.8,286047004.3,Y
1547525295.6,286047001.4,P
1547525315.4,286047001.4,N
1547525335.3,286047002.6,P
1547525355.1,286047001.5,N
1547525375.9,286047004.4,Y
1547525395.7,286047001.9,P
1547525415.5,286047002.1,P
1547525435.4,286047002.0,P
1547525455.2,286047002.1,Y
1547525475.0,286046999.1,P
1547525475.9,286046999.1,N
1547525495.8,286046999.5,N
1547525515.6,286046999.3,N
1547525535.6,286046996.7,Y
1547525555.4,286046999.6,P
1547525575.2,286047001.2,P
1547525595.1,286046998.5,N
1547525596.0,286046998.5,N
1547525615.7,286046997.3,N
1547525635.5,286046997.6,N
1547525655.3,286046996.5,N
1547525675.2,286046999.2,N
1547525695.0,286046999.1,N
1547525695.9,286046999.1,N
1547525715.7,286046997.8,N
1547525735.6,286046997.7,N
1547525755.4,286046994.9,Y
1547525775.3,286046998.6,P
1547525795.1,286046998.6,P
1547525796.0,286046998.6,P
1547525815.8,286046998.6,Y
1547525835.7,286047002.1,P
1547525855.5,286047000.1,N
1547525875.4,286047002.4,N
1547525895.2,286047001.5,N
1547525915.0,286046999.7,N
1547525915.9,286046999.7,N
1547525935.8,286047000.8,N
1547525955.6,286047001.1,N
1547525975.4,286046996.5,Y
1547525995.3,286046996.7,P
1547526015.1,286046999.0,N
1547526035.9,286046998.6,N
1547526055.7,286047001.2,N
1547526075.5,286046999.1,N
1547526095.4,286046999.2,N
1547526115.2,286046999.2,N
1547526135.0,286046999.4,N
1547526136.0,286046999.4,N
1547526155.8,286046998.9,N
1547526175.6,286046999.3,N
1547526195.5,286046998.4,N
1547526215.3,286046998.7,N
1547526235.1,286046999.0,N
1547526255.9,286046998.8,N
1547526275.7,286046998.9,N
1547526295.6,286047001.0,N
1547526315.4,286046998.7,N
1547526335.2,286046999.2,N
1547526355.1,286047001.1,N
1547526356.0,286047001.1,N
1547526375.8,286046998.3,N
1547526395.6,286046999.0,N
1547526415.5,286046999.4,N
1547526435.3,286046996.5,Y
1547526455.2,286046999.5,P
1547526475.9,286046999.3,P
1547526495.7,286047001.2,P
1547526515.6,286047002.3,N
1547526535.4,286047002.3,N
1547526555.3,286047002.4,N
1547526575.1,286046999.8,N
1547526576.0,286046999.8,N
1547526595.8,286047000.8,N
1547526615.7,286047000.6,N
1547526635.5,286046999.9,N
1547526655.3,286047000.3,N
1547526675.2,286047000.6,N
1547526695.0,286047000.7,N
1547526695.9,286047000.7,N
1547526715.8,286047001.0,N
1547526735.6,286047000.9,N
1547526755.4,286047000.1,N
1547526775.3,286047001.3,N
1547526795.1,286047003.8,Y
1547526815.9,286047001.4,P
1547526835.7,286047003.6,P
1547526855.5,286047003.5,N
1547526875.4,286047004.2,Y
1547526895.2,286047001.1,P
1547526915.0,286046996.5,P
1547526916.0,286046996.5,N
1547526935.8,286046997.9,N
1547526955.6,286046996.7,N
1547526975.5,286046998.4,N
1547526995.3,286046998.5,N
1547527015.1,286046998.7,N
1547527035.9,286046998.5,N
1547527055.7,286046998.8,N
1547527075.6,286046997.5,N
1547527095.4,286046997.5,N
1547527115.2,286046995.3,N
1547527135.1,286046996.2,N
1547527136.0,286046996.2,N
1547527155.8,286046993.3,Y
1547527175.7,286046998.5,P
1547527195.5,286046996.8,P
1547527215.3,286046998.9,N
1547527235.2,286046998.1,N
1547527255.0,286046998.4,N
1547527255.9,286046998.4,N
1547527275.8,286046999.4,N
1547527295.6,286046998.8,N
1547527315.4,286047004.3,Y
1547527335.3,286047005.5,P
1547527355.1,286047004.1,N
1547527375.8,286047004.3,N
1547527395.7,286047002.6,N
1547527415.5,286047002.2,N
1547527435.4,286047002.5,N
1547527455.2,286047001.6,N
1547527475.0,286047004.0,N
1547527475.9,286047004.0,N
1547527495.8,286047003.7,N
1547527515.6,286047001.5,N
1547527535.5,286047006.1,Y
1547527555.3,286047005.6,P
1547527575.1,286047003.4,N
1547527595.9,286047003.8,P
1547527615.7,286047002.8,N
1547527635.6,286047000.2,N
1547527655.4,286046998.5,N
1547527675.2,286046999.6,N
1547527695.1,286046999.6,N
1547527696.0,286046999.6,N
1547527715.8,286046999.5,N
1547527735.6,286046996.9,N
1547527755.5,286046999.1,N
1547527775.3,286046998.9,N
1547527795.2,286046997.0,N
1547527815.0,286046999.1,N
1547527815.9,286046999.1,N
1547527835.7,286046998.8,N
1547527855.6,286046997.3,N
1547527875.4,286046997.3,N
1547527895.3,286046999.2,N
1547527915.1,286046998.7,N
1547527916.0,286046998.7,N
1547527935.8,286046996.5,N
1547527955.7,286046998.1,N
1547527975.5,286046999.0,N
1547527995.3,286046998.2,N
1547528015.2,286047001.0,N
1547528035.0,286047001.0,N
1547528035.9,286047001.0,N
1547528055.8,286046998.2,N
1547528075.6,286046998.6,N
1547528095.4,286046999.2,N
1547528115.3,286046999.6,N
1547528135.1,286046996.7,N
1547528155.9,286046999.3,N
1547528175.7,286046999.0,N
1547528195.5,286046998.7,N
1547528215.4,286046999.0,N
1547528235.2,286046997.0,N
1547528255.0,286046995.4,Y
1547528255.9,286046995.4,P
1547528275.8,286047000.9,N
1547528295.6,286047002.3,N
1547528315.5,286047002.4,N
1547528335.3,286047004.3,N
1547528355.1,286047003.3,N
1547528375.9,286047003.0,N
1547528395.7,286047003.1,N
